Flag for U.S.A. Weather past 2 weeks in Rapid City, South Dakota, U.S.A.

Now
65 °F

Sunny.


Feels Like: 65 °F
Forecast: 38 / 64 °F
Wind: 18 mph from Southeast

Location: Ellsworth Air Force Base

Current Time: May 30, 2015 at 4:46:55 PM

Latest Report: May 30, 2015 at 3:58 PM


Visibility: 10 mi

Pressure: 30.15 "Hg

Humidity: 51%

Dew point: 46 °F

Location of Rapid CityLocation

Historic Weather in Rapid City — Graph

°F

Rapid City temperature yesterday

Maximum temperature yesterday: 58 °F (at 12:58 AM)
Minimum temperature yesterday: 44 °F (at 11:58 PM)
Average temperature yesterday: 52 °F

Past Weeks' High & Low Weather Summary

 TemperatureHumidityPressure
High72 °F (May 16, 3:58 PM)100% (May 15, 2:58 PM)30.45 "Hg (May 15, 2:58 PM)
Low35 °F (May 21, 3:58 AM)25% (May 18, 3:58 PM)29.52 "Hg (May 16, 3:58 PM)
Average52 °F79%30.04 "Hg
* Reported May 15 2:58 PM — May 30 2:58 PM, Rapid City, Weather by CustomWeather, © 2015

Note: Actual official high and low records may vary slightly from our data, if they occured in-between our weather recording intervals... More about our weather records

Advertising

Rapid City weather history for previous 24 hours

 ConditionsComfort  
Time TempWeatherWind HumidityBarometerVisibility
2:58 PM
Sat, May 30
64 °FSunny.22 mph54%30.17 "Hg10 mi
1:58 PM62 °FSunny.21 mph56%30.18 "Hg10 mi
12:58 PM59 °FSunny.21 mph60%30.22 "Hg10 mi
11:58 AM57 °FPassing clouds.17 mph61%30.26 "Hg10 mi
10:58 AM55 °FOvercast.20 mph64%30.27 "Hg10 mi
9:58 AM52 °FPassing clouds.14 mph66%30.28 "Hg10 mi
8:58 AM50 °FPassing clouds.18 mph70%30.29 "Hg10 mi
7:58 AM46 °FSunny.14 mph80%30.31 "Hg10 mi
6:58 AM43 °FSunny.8 mph86%30.32 "Hg10 mi
5:58 AM37 °FSunny.6 mph94%30.32 "Hg10 mi
4:58 AM39 °FClear.5 mph90%30.32 "Hg10 mi
3:58 AM40 °FClear.2 mph88%30.32 "Hg10 mi
2:58 AM40 °FClear.5 mph88%30.32 "Hg10 mi
1:58 AM41 °FClear.5 mph87%30.33 "Hg10 mi
12:58 AM42 °FClear.3 mph81%30.34 "Hg10 mi
11:58 PM
Fri, May 29
44 °FClear.3 mph79%30.33 "Hg10 mi
10:58 PM45 °FClear.3 mph76%30.33 "Hg10 mi
9:58 PM48 °FClear.6 mph68%30.32 "Hg10 mi
8:58 PM49 °FClear.7 mph73%30.30 "Hg10 mi
7:58 PM54 °FSunny.9 mph59%30.28 "Hg10 mi
6:58 PM56 °FScattered clouds.10 mph51%30.28 "Hg10 mi
5:58 PM57 °FPartly sunny.10 mph54%30.26 "Hg10 mi
4:58 PM56 °FOvercast.14 mph57%30.26 "Hg10 mi
Weather by CustomWeather, © 2015

See weather overviewHow to use our weather pages